{"data":{"norad_id":57479,"intl_designator":"2023-108A","name":"JUPITER 3 (ECHOSTAR 24)","alt_names":[],"object_type":"PAYLOAD","status":"ACTIVE","operator":null,"country":"US","launch_date":"2023-07-29","launch_site_code":"AFETR","launch_vehicle":null,"mission":null,"orbit_class":"UNKNOWN","rcs_meters":null,"size_class":null,"mass_kg":null,"dimensions":null,"purposes":["comms"],"wikipedia_slug":null,"has_3d_model":false,"image_url":null,"decayed_at":null,"tle_current":{"epoch":"2026-05-24T14:12:07.493760Z","epoch_age_seconds":104277,"freshness":"FRESH","line1":"1 57479U 23108A   26144.59175340  .00000000  00000+0  00000+0 0  9995","line2":"2 57479   0.0179 308.8009 0001283 121.5371 289.6758  1.00270365 10407","mean_motion":1.00270365,"eccentricity":0.0001283,"inclination_deg":0.0179,"raan_deg":308.8009,"arg_perigee_deg":121.5371,"mean_anomaly_deg":289.6758,"bstar":0,"rev_number":1040,"period_min":1436.1172416197,"perigee_km":35781.583257251,"apogee_km":35792.402829621,"semimajor_km":42165.130043436,"source":"CELESTRAK","updated_at":"2026-05-25T13:38:14.142244Z"}}}